| time (UTC) | temp F | wind direction | speed knots | gust knots | rain 1hr in | rain 24hr in | rain mn in | humidity % | barometer mb |
| 20260903104503 | 53 | 192 | 0.0 | 2.6 | 0.00 | 0.18 | 0.04 | 96 | 1008.5 |
| 20260903103002 | 53 | 146 | 0.0 | 0.9 | 0.00 | 0.18 | 0.04 | 96 | 1008.6 |
| 20260903101501 | 53 | 162 | 0.0 | 3.5 | 0.00 | 0.18 | 0.04 | 96 | 1008.5 |
| 20260903100045 | 53 | 166 | 0.0 | 1.7 | 0.00 | 0.18 | 0.04 | 96 | 1008.4 |
| 20260903094549 | 53 | 155 | 0.0 | 0.9 | 0.00 | 0.18 | 0.04 | 96 | 1008.4 |
| 20260903093049 | 53 | 122 | 0.0 | 1.7 | 0.00 | 0.18 | 0.04 | 96 | 1008.4 |
| 20260903091524 | 53 | 203 | 0.0 | 1.7 | 0.00 | 0.18 | 0.04 | 96 | 1008.4 |
| 20260903090009 | 53 | 165 | 0.0 | 0.9 | 0.00 | 0.18 | 0.04 | 96 | 1008.6 |
| 20260903084505 | 53 | 153 | 0.0 | 0.9 | 0.00 | 0.18 | 0.04 | 96 | 1008.6 |
| 20260903083051 | 53 | 155 | 0.0 | 2.6 | 0.00 | 0.18 | 0.04 | 96 | 1008.7 |
| 20260903081547 | 53 | 176 | 0.0 | 0.9 | 0.00 | 0.18 | 0.04 | 96 | 1008.7 |
| 20260903080029 | 53 | 194 | 0.0 | 1.7 | 0.00 | 0.18 | 0.04 | 96 | 1008.7 |
| 20260903074528 | 53 | 169 | 0.0 | 1.7 | 0.00 | 0.18 | 0.04 | 96 | 1008.8 |
| 20260903073010 | 53 | 148 | 0.0 | 1.7 | 0.00 | 0.18 | 0.04 | 96 | 1008.8 |
| 20260903071509 | 53 | 155 | 0.0 | 1.7 | 0.00 | 0.18 | 0.04 | 96 | 1008.7 |
| 20260903064604 | 54 | 158 | 0.0 | 1.7 | 0.00 | 0.18 | 0.04 | 96 | 1008.6 |
| 20260903063102 | 54 | 123 | 0.0 | 0.9 | 0.00 | 0.18 | 0.04 | 96 | 1008.6 |
| 20260903061553 | 54 | 154 | 0.0 | 1.7 | 0.00 | 0.18 | 0.04 | 96 | 1008.7 |
| 20260903060053 | 54 | 167 | 0.0 | 2.6 | 0.00 | 0.18 | 0.04 | 96 | 1008.8 |
| 20260903054553 | 54 | 134 | 0.0 | 2.6 | 0.00 | 0.18 | 0.04 | 96 | 1008.8 |
| 20260903053051 | 54 | 164 | 0.0 | 0.9 | 0.00 | 0.18 | 0.04 | 96 | 1008.8 |
| 20260903051550 | 54 | 160 | 0.0 | 0.9 | 0.00 | 0.18 | 0.04 | 96 | 1008.7 |
| 20260903050042 | 54 | 160 | 0.0 | 0.9 | 0.00 | 0.18 | 0.04 | 96 | 1008.7 |
| 20260903044546 | 54 | 165 | 0.0 | 0.9 | 0.00 | 0.18 | 0.04 | 96 | 1008.7 |
| 20260903043034 | 54 | 160 | 0.0 | 0.0 | 0.00 | 0.18 | 0.04 | 96 | 1008.4 |
| 20260903041533 | 54 | 155 | 0.0 | 0.0 | 0.00 | 0.18 | 0.04 | 96 | 1008.3 |
| 20260903040036 | 54 | 158 | 0.0 | 0.0 | 0.00 | 0.18 | 0.04 | 96 | 1008.2 |
| 20260903034530 | 54 | 158 | 0.0 | 0.0 | 0.00 | 0.18 | 0.04 | 95 | 1007.9 |
| 20260903033027 | 55 | 158 | 0.0 | 0.0 | 0.00 | 0.18 | 0.04 | 95 | 1007.7 |
| 20260903031524 | 55 | 158 | 0.0 | 0.0 | 0.00 | 0.18 | 0.04 | 95 | 1007.6 |
| 20260903030005 | 56 | 158 | 0.0 | 0.0 | 0.00 | 0.18 | 0.04 | 94 | 1007.5 |
| 20260903024502 | 56 | 158 | 0.0 | 0.0 | 0.00 | 0.18 | 0.04 | 94 | 1007.3 |
| 20260903023046 | 57 | 146 | 0.0 | 0.9 | 0.00 | 0.18 | 0.04 | 94 | 1007.1 |
| 20260903021543 | 58 | 142 | 0.0 | 0.9 | 0.00 | 0.18 | 0.04 | 93 | 1007.0 |
| 20260903020034 | 58 | 172 | 0.0 | 1.7 | 0.00 | 0.18 | 0.04 | 93 | 1007.0 |
| 20260903014529 | 58 | 172 | 0.0 | 0.9 | 0.00 | 0.18 | 0.04 | 93 | 1006.7 |
| 20260903013028 | 58 | 157 | 0.0 | 1.7 | 0.00 | 0.18 | 0.04 | 92 | 1006.7 |
| 20260903011527 | 58 | 119 | 0.0 | 0.9 | 0.00 | 0.18 | 0.04 | 94 | 1006.5 |
| 20260903010023 | 58 | 155 | 0.0 | 1.7 | 0.00 | 0.18 | 0.04 | 95 | 1006.5 |
| 20260903004525 | 57 | 113 | 0.0 | 0.9 | 0.01 | 0.18 | 0.04 | 96 | 1006.4 |
| 20260903003021 | 57 | 131 | 0.0 | 0.9 | 0.01 | 0.18 | 0.04 | 95 | 1006.3 |
| 20260903001525 | 57 | 119 | 0.0 | 0.9 | 0.01 | 0.18 | 0.04 | 95 | 1006.3 |
| 20260903000016 | 57 | 91 | 0.0 | 0.9 | 0.01 | 0.18 | 0.04 | 96 | 1006.1 |
| 20260902234506 | 57 | 113 | 0.0 | 0.9 | 0.00 | 0.17 | 0.03 | 96 | 1006.1 |
| 20260902233008 | 57 | 148 | 0.0 | 0.9 | 0.02 | 0.17 | 0.03 | 96 | 1006.0 |
| 20260902231508 | 57 | 129 | 0.0 | 0.9 | 0.02 | 0.17 | 0.03 | 96 | 1006.1 |
| 20260902230001 | 57 | 140 | 0.0 | 0.9 | 0.02 | 0.17 | 0.03 | 96 | 1005.9 |
| 20260902224614 | 57 | 165 | 0.0 | 2.6 | 0.03 | 0.17 | 0.03 | 96 | 1005.6 |
| 20260902223112 | 57 | 198 | 0.9 | 3.5 | 0.01 | 0.15 | 0.01 | 95 | 1005.4 |
| 20260902221605 | 57 | 193 | 0.0 | 3.5 | 0.01 | 0.15 | 0.01 | 95 | 1005.3 |
| 20260902220037 | 56 | 135 | 0.0 | 2.6 | 0.01 | 0.15 | 0.01 | 95 | 1005.2 |
| 20260902214605 | 56 | 155 | 0.0 | 3.5 | 0.00 | 0.14 | 0.00 | 95 | 1005.1 |
| 20260902213022 | 56 | 162 | 0.0 | 5.2 | 0.00 | 0.14 | 0.00 | 95 | 1005.1 |
| 20260902211527 | 56 | 168 | 0.0 | 2.6 | 0.00 | 0.14 | 0.14 | 95 | 1005.1 |
| 20260902210021 | 56 | 163 | 0.0 | 1.7 | 0.01 | 0.14 | 0.14 | 95 | 1005.0 |
| 20260902204520 | 56 | 310 | 0.0 | 2.6 | 0.01 | 0.14 | 0.14 | 95 | 1005.0 |
| 20260902203020 | 56 | 202 | 0.0 | 3.5 | 0.03 | 0.14 | 0.14 | 95 | 1004.9 |
| 20260902201531 | 56 | 207 | 0.9 | 6.1 | 0.04 | 0.14 | 0.14 | 95 | 1004.8 |
| 20260902200018 | 56 | 234 | 0.0 | 5.2 | 0.06 | 0.13 | 0.13 | 95 | 1004.8 |
| 20260902194532 | 56 | 199 | 0.0 | 5.2 | 0.07 | 0.13 | 0.13 | 95 | 1004.6 |
| 20260902193002 | 56 | 143 | 0.0 | 1.7 | 0.06 | 0.11 | 0.11 | 95 | 1005.0 |
| 20260902191600 | 56 | 175 | 0.0 | 0.9 | 0.06 | 0.10 | 0.10 | 94 | 1005.2 |
| 20260902190059 | 56 | 176 | 0.0 | 1.7 | 0.03 | 0.07 | 0.07 | 94 | 1005.6 |
| 20260902184558 | 56 | 172 | 0.0 | 0.9 | 0.03 | 0.06 | 0.06 | 94 | 1005.4 |
| 20260902183058 | 56 | 174 | 0.0 | 0.9 | 0.04 | 0.05 | 0.05 | 93 | 1005.4 |
| 20260902181601 | 56 | 165 | 0.0 | 1.7 | 0.04 | 0.04 | 0.04 | 93 | 1005.6 |
| 20260902180057 | 56 | 165 | 0.0 | 1.7 | 0.04 | 0.04 | 0.04 | 93 | 1005.9 |
| 20260902174556 | 56 | 127 | 0.0 | 2.6 | 0.03 | 0.03 | 0.03 | 91 | 1006.0 |
| 20260902173040 | 57 | 138 | 0.0 | 1.7 | 0.01 | 0.01 | 0.01 | 90 | 1006.0 |
| 20260902171542 | 57 | 164 | 0.0 | 0.9 | 0.00 | 0.00 | 0.00 | 88 | 1005.9 |
| 20260902170039 | 58 | 153 | 0.0 | 0.0 | 0.00 | 0.00 | 0.00 | 86 | 1005.8 |
| 20260902164544 | 59 | 160 | 0.0 | 1.7 | 0.00 | 0.00 | 0.00 | 82 | 1005.7 |
| 20260902163038 | 59 | 141 | 0.0 | 1.7 | 0.00 | 0.00 | 0.00 | 79 | 1005.6 |
| 20260902161538 | 60 | 158 | 0.0 | 0.9 | 0.00 | 0.00 | 0.00 | 79 | 1005.6 |
| 20260902160035 | 59 | 167 | 0.0 | 0.0 | 0.00 | 0.00 | 0.00 | 82 | 1005.7 |
| 20260902154534 | 59 | 163 | 0.0 | 0.0 | 0.00 | 0.00 | 0.00 | 83 | 1005.8 |
| 20260902153027 | 59 | 163 | 0.0 | 1.7 | 0.00 | 0.00 | 0.00 | 82 | 1005.9 |
| 20260902151519 | 59 | 186 | 0.0 | 0.9 | 0.00 | 0.00 | 0.00 | 79 | 1006.2 |
| 20260902150020 | 0 | 0.0 | 0.0 | 0.00 | 0.00 | 0.00 | 1006.2 | ||
| 20260902144512 | 0 | 0.0 | 0.0 | 0.00 | 0.00 | 0.00 | 1006.3 | ||
| 20260902143008 | 0 | 0.0 | 0.0 | 0.00 | 0.00 | 0.00 | 1006.4 | ||
| 20260902141504 | 0 | 0.0 | 0.0 | 0.00 | 0.00 | 0.00 | 1006.6 | ||
| 20260902140107 | 0 | 0.0 | 0.0 | 0.00 | 0.00 | 0.00 | 1006.7 | ||
| 20260902134558 | 0 | 0.0 | 0.0 | 0.00 | 0.00 | 0.00 | 1006.9 | ||
| 20260902133101 | 0 | 0.0 | 0.0 | 0.00 | 0.00 | 0.00 | 1007.1 | ||
| 20260902131529 | 0 | 0.0 | 0.0 | 0.00 | 0.00 | 0.00 | 1007.2 | ||
| 20260902130028 | 0 | 0.0 | 0.0 | 0.00 | 0.00 | 0.00 | 1007.6 | ||
| 20260902124508 | 0 | 0.0 | 0.0 | 0.00 | 0.00 | 0.00 | 1007.8 | ||
| 20260902123007 | 0 | 0.0 | 0.0 | 0.00 | 0.00 | 0.00 | 1007.9 | ||
| 20260902121609 | 0 | 0.0 | 0.0 | 0.00 | 0.00 | 0.00 | 1008.1 | ||
| 20260902120056 | 0 | 0.0 | 0.0 | 0.00 | 0.00 | 0.00 | 1008.3 | ||
| 20260902114553 | 0 | 0.0 | 0.0 | 0.00 | 0.00 | 0.00 | 1008.5 | ||
| 20260902113054 | 0 | 0.0 | 0.0 | 0.00 | 0.00 | 0.00 | 1008.7 | ||
| 20260902111544 | 57 | 176 | 0.0 | 0.0 | 0.00 | 0.00 | 0.00 | 84 | 1008.8 |
| 20260902110042 | 57 | 171 | 0.0 | 0.0 | 0.00 | 0.00 | 0.00 | 84 | 1008.9 |